When you browse on this site, cookies collect data to enhance your experience and personalize the content and advertising you see.
Visit our Privacy Policy to learn more. By continuing to use the site, you agree to this use of cookies and data.
  • In Lithuania
  • List of Countries
  • For 7 days
  • Water Temperature
  • Weather Map
  • Weather Widgets
  • user-avatar
    Login

    Hourly Weather Punta Cana

    Today, 13 December, Friday

    Time Temperature Precipitation Wind Pressure Humidity
    00:00 +26°C° 0.5 mm 7 mps 761 mmHg 86%
    01:00 +26°C° 0.5 mm 7 mps 760 mmHg 86%
    02:00 +26°C° 1.1 mm 7 mps 760 mmHg 87%
    03:00 +26°C° 1.1 mm 7 mps 760 mmHg 88%
    04:00 +24°C° 1.1 mm 7 mps 760 mmHg 88%
    05:00 +26°C° 2.1 mm 7 mps 760 mmHg 88%
    06:00 +26°C° 2.1 mm 8 mps 761 mmHg 88%
    07:00 +26°C° 2.1 mm 8 mps 761 mmHg 87%
    08:00 +27°C° 1.1 mm 8 mps 761 mmHg 83%
    09:00 +28°C° 1.1 mm 7 mps 761 mmHg 79%
    10:00 +30°C° 1.1 mm 7 mps 762 mmHg 74%
    11:00 +30°C° 0.4 mm 7 mps 761 mmHg 74%
    12:00 +30°C° 0.4 mm 7 mps 760 mmHg 75%
    13:00 +30°C° 0.4 mm 6 mps 760 mmHg 75%
    14:00 +29°C° 0.3 mm 6 mps 759 mmHg 78%
    15:00 +29°C° 0.3 mm 5 mps 759 mmHg 80%
    16:00 +28°C° 0.3 mm 5 mps 759 mmHg 83%
    17:00 +27°C° 0.2 mm 4 mps 759 mmHg 84%
    18:00 +27°C° 0.2 mm 4 mps 760 mmHg 86%
    19:00 +26°C° 0.2 mm 4 mps 760 mmHg 87%
    20:00 +26°C° 0.5 mm 4 mps 760 mmHg 87%
    21:00 +26°C° 0.5 mm 5 mps 761 mmHg 87%
    22:00 +26°C° 0.5 mm 6 mps 761 mmHg 87%
    23:00 +26°C° 0.4 mm 6 mps 761 mmHg 87%

    Tomorrow, 14 December, Saturday

    Time Temperature Precipitation Wind Pressure Humidity
    00:00 +26°C° 0.4 mm 6 mps 760 mmHg 86%
    01:00 +26°C° 0.4 mm 6 mps 760 mmHg 86%
    02:00 +26°C° 0.1 mm 6 mps 760 mmHg 85%
    03:00 +26°C° 0.1 mm 6 mps 760 mmHg 85%
    04:00 +26°C° 0.1 mm 5 mps 760 mmHg 84%
    05:00 +26°C° 0 mm 5 mps 760 mmHg 84%
    06:00 +27°C° 0 mm 5 mps 761 mmHg 85%
    07:00 +27°C° 0 mm 5 mps 761 mmHg 85%
    08:00 +28°C° 0 mm 5 mps 761 mmHg 80%
    09:00 +29°C° 0 mm 5 mps 761 mmHg 74%
    10:00 +30°C° 0 mm 4 mps 762 mmHg 69%
    11:00 +30°C° 0.1 mm 4 mps 761 mmHg 69%
    12:00 +30°C° 0.1 mm 4 mps 760 mmHg 69%
    13:00 +30°C° 0.1 mm 4 mps 760 mmHg 68%
    14:00 +30°C° 0.1 mm 4 mps 760 mmHg 71%
    15:00 +29°C° 0.1 mm 3 mps 760 mmHg 75%
    16:00 +29°C° 0.1 mm 3 mps 759 mmHg 78%
    17:00 +28°C° 0.2 mm 3 mps 760 mmHg 80%
    18:00 +27°C° 0.2 mm 3 mps 760 mmHg 83%
    19:00 +26°C° 0.2 mm 2 mps 761 mmHg 85%
    20:00 +26°C° 0.1 mm 2 mps 761 mmHg 86%
    21:00 +26°C° 0.1 mm 2 mps 761 mmHg 87%
    22:00 +26°C° 0.1 mm 3 mps 762 mmHg 88%
    23:00 +26°C° 1 mm 2 mps 761 mmHg 88%

    Day after tomorrow, 15 December, Sunday

    Time Temperature Precipitation Wind Pressure Humidity
    00:00 +25°C° 1 mm 2 mps 761 mmHg 89%
    01:00 +25°C° 1 mm 2 mps 761 mmHg 90%
    02:00 +25°C° 0.8 mm 2 mps 761 mmHg 90%
    03:00 +25°C° 0.8 mm 3 mps 761 mmHg 90%
    04:00 +25°C° 0.8 mm 3 mps 761 mmHg 90%
    05:00 +26°C° 0.5 mm 3 mps 761 mmHg 90%
    06:00 +26°C° 0.5 mm 3 mps 762 mmHg 89%
    07:00 +27°C° 0.5 mm 4 mps 762 mmHg 88%
    08:00 +28°C° 0.1 mm 4 mps 763 mmHg 84%
    09:00 +29°C° 0.1 mm 4 mps 763 mmHg 79%
    10:00 +30°C° 0.1 mm 4 mps 763 mmHg 74%
    11:00 +30°C° 0 mm 4 mps 763 mmHg 73%
    12:00 +30°C° 0 mm 4 mps 762 mmHg 71%
    13:00 +32°C° 0 mm 4 mps 762 mmHg 70%
    14:00 +30°C° 0 mm 4 mps 762 mmHg 74%
    15:00 +29°C° 0 mm 4 mps 761 mmHg 78%
    16:00 +29°C° 0 mm 4 mps 761 mmHg 82%
    17:00 +28°C° 0.1 mm 4 mps 762 mmHg 84%
    18:00 +27°C° 0.1 mm 5 mps 762 mmHg 86%
    19:00 +27°C° 0.1 mm 5 mps 762 mmHg 88%
    20:00 +27°C° 0.1 mm 6 mps 763 mmHg 88%
    21:00 +27°C° 0.1 mm 6 mps 763 mmHg 88%
    22:00 +27°C° 0.1 mm 7 mps 763 mmHg 88%
    23:00 +27°C° 0.2 mm 7 mps 763 mmHg 88%

    16 December, Monday

    Time Temperature Precipitation Wind Pressure Humidity
    00:00 +27°C° 0.2 mm 6 mps 762 mmHg 87%
    01:00 +26°C° 0.2 mm 6 mps 762 mmHg 87%
    02:00 +26°C° 0.1 mm 6 mps 762 mmHg 87%
    03:00 +26°C° 0.1 mm 6 mps 762 mmHg 87%
    04:00 +26°C° 0.1 mm 6 mps 762 mmHg 86%
    05:00 +27°C° 0.1 mm 6 mps 762 mmHg 86%
    06:00 +27°C° 0.1 mm 7 mps 763 mmHg 85%
    07:00 +27°C° 0.1 mm 7 mps 763 mmHg 85%
    08:00 +28°C° 0.2 mm 7 mps 763 mmHg 82%
    09:00 +29°C° 0.2 mm 7 mps 764 mmHg 79%
    10:00 +30°C° 0.2 mm 7 mps 764 mmHg 76%
    11:00 +30°C° 0.2 mm 7 mps 763 mmHg 77%
    12:00 +29°C° 0.2 mm 7 mps 763 mmHg 78%
    13:00 +29°C° 0.2 mm 7 mps 762 mmHg 79%
    14:00 +29°C° 0.1 mm 7 mps 762 mmHg 80%
    15:00 +29°C° 0.1 mm 7 mps 762 mmHg 81%
    16:00 +28°C° 0.1 mm 7 mps 761 mmHg 82%
    17:00 +28°C° 0.3 mm 7 mps 762 mmHg 83%
    18:00 +27°C° 0.3 mm 8 mps 762 mmHg 85%
    19:00 +27°C° 0.3 mm 8 mps 762 mmHg 86%
    20:00 +27°C° 0.4 mm 8 mps 762 mmHg 86%
    21:00 +27°C° 0.4 mm 8 mps 763 mmHg 86%
    22:00 +27°C° 0.4 mm 8 mps 763 mmHg 86%
    23:00 +27°C° 0.4 mm 8 mps 762 mmHg 87%

    17 December, Tuesday

    Time Temperature Precipitation Wind Pressure Humidity
    00:00 +26°C° 0.4 mm 8 mps 762 mmHg 88%
    01:00 +26°C° 0.4 mm 8 mps 762 mmHg 89%
    02:00 +26°C° 0.3 mm 7 mps 762 mmHg 88%
    03:00 +26°C° 0.3 mm 7 mps 761 mmHg 88%
    04:00 +26°C° 0.3 mm 7 mps 761 mmHg 87%
    05:00 +26°C° 0.3 mm 7 mps 762 mmHg 87%
    06:00 +27°C° 0.3 mm 7 mps 762 mmHg 87%
    07:00 +27°C° 0.3 mm 7 mps 762 mmHg 86%
    08:00 +28°C° 0.2 mm 7 mps 762 mmHg 84%
    09:00 +28°C° 0.2 mm 7 mps 763 mmHg 81%
    10:00 +29°C° 0.2 mm 7 mps 763 mmHg 78%
    11:00 +29°C° 0.2 mm 6 mps 762 mmHg 76%
    12:00 +30°C° 0.2 mm 5 mps 762 mmHg 74%
    13:00 +30°C° 0.2 mm 5 mps 761 mmHg 71%
    14:00 +29°C° 0.3 mm 5 mps 761 mmHg 75%
    15:00 +29°C° 0.3 mm 4 mps 761 mmHg 78%
    16:00 +28°C° 0.3 mm 4 mps 761 mmHg 81%
    17:00 +27°C° 0.4 mm 4 mps 761 mmHg 83%
    18:00 +26°C° 0.4 mm 4 mps 761 mmHg 85%
    19:00 +26°C° 0.4 mm 4 mps 761 mmHg 88%
    20:00 +26°C° 0.4 mm 4 mps 761 mmHg 88%
    21:00 +25°C° 0.4 mm 4 mps 762 mmHg 88%
    22:00 +25°C° 0.4 mm 4 mps 762 mmHg 88%
    23:00 +25°C° 0.3 mm 4 mps 761 mmHg 88%

    18 December, Wednesday

    Time Temperature Precipitation Wind Pressure Humidity
    00:00 +25°C° 0.3 mm 4 mps 761 mmHg 88%
    01:00 +25°C° 0.3 mm 4 mps 761 mmHg 89%
    02:00 +25°C° 0.1 mm 4 mps 761 mmHg 89%
    03:00 +25°C° 0.1 mm 4 mps 761 mmHg 89%
    04:00 +25°C° 0.1 mm 5 mps 761 mmHg 89%
    05:00 +25°C° 0.1 mm 5 mps 761 mmHg 88%
    06:00 +25°C° 0.1 mm 5 mps 762 mmHg 88%
    07:00 +26°C° 0.1 mm 5 mps 762 mmHg 87%
    08:00 +27°C° 0 mm 5 mps 763 mmHg 81%
    09:00 +28°C° 0 mm 5 mps 763 mmHg 76%
    10:00 +29°C° 0 mm 5 mps 763 mmHg 70%
    11:00 +29°C° 0 mm 5 mps 762 mmHg 69%
    12:00 +29°C° 0 mm 4 mps 762 mmHg 68%
    13:00 +29°C° 0 mm 4 mps 761 mmHg 67%
    14:00 +29°C° 0 mm 4 mps 761 mmHg 70%
    15:00 +29°C° 0 mm 3 mps 761 mmHg 72%
    16:00 +28°C° 0 mm 3 mps 760 mmHg 75%
    17:00 +27°C° 0 mm 3 mps 761 mmHg 78%
    18:00 +26°C° 0 mm 3 mps 761 mmHg 81%
    19:00 +25°C° 0 mm 3 mps 761 mmHg 83%
    20:00 +25°C° 0 mm 2 mps 761 mmHg 84%
    21:00 +25°C° 0 mm 2 mps 762 mmHg 84%
    22:00 +24°C° 0 mm 2 mps 762 mmHg 84%
    23:00 +24°C° 0 mm 2 mps 761 mmHg 85%
    Show more